This is the latest recevied weather packets stored in our database for station/object DM4WH-13. If no packets are shown the sender has not sent any weather packets the latest 10 day(s).
| Time | Temp. | Humidity | Pressure | Rain* | Wind** | Luminosity | Snow |
|---|---|---|---|---|---|---|---|
| 1777550423 | 13.89° C | 35% | 1032.7 hPa | 0 mm | 0.45 m/s, 287° | - | - |
| 1777550110 | 13.89° C | 34% | 1032.8 hPa | 0 mm | 0.45 m/s, 26° | - | - |
| 1777549823 | 13.89° C | 34% | 1032.8 hPa | 0 mm | 0.45 m/s, 48° | - | - |
| 1777549510 | 12.78° C | 33% | 1032.8 hPa | 0 mm | 0 m/s | - | - |
| 1777549223 | 13.89° C | 34% | 1032.9 hPa | 0 mm | 0.89 m/s, 288° | - | - |
| 1777548911 | 13.89° C | 37% | 1032.9 hPa | 0 mm | 0.45 m/s, 300° | - | - |
| 1777548623 | 12.78° C | 37% | 1033 hPa | 0 mm | 0.89 m/s, 281° | - | - |
| 1777548310 | 13.89° C | 33% | 1033 hPa | 0 mm | 0.89 m/s, 323° | - | - |
| 1777548022 | 15° C | 31% | 1033 hPa | 0 mm | 0.45 m/s, 25° | - | - |
| 1777547710 | 15° C | 33% | 1033 hPa | 0 mm | 0.45 m/s, 48° | - | - |
| 1777547422 | 13.89° C | 33% | 1033.1 hPa | 0 mm | 0.45 m/s, 60° | - | - |
| 1777547110 | 13.89° C | 32% | 1033.1 hPa | 0 mm | 0.89 m/s, 38° | - | - |
| 1777546823 | 13.89° C | 34% | 1033.1 hPa | 0 mm | 0.89 m/s, 282° | - | - |
| 1777546510 | 13.89° C | 33% | 1033.3 hPa | 0 mm | 0.89 m/s, 29° | - | - |
| 1777546223 | 12.78° C | 32% | 1033.3 hPa | 0 mm | 0.45 m/s, 49° | - | - |
| 1777545910 | 12.78° C | 33% | 1033.4 hPa | 0 mm | 0.45 m/s, 281° | - | - |
| 1777545623 | 12.78° C | 31% | 1033.5 hPa | 0 mm | 0.89 m/s, 31° | - | - |
| 1777545310 | 12.78° C | 33% | 1033.5 hPa | 0 mm | 0.45 m/s, 270° | - | - |
| 1777545035 | 12.22° C | 32% | 1033.5 hPa | 0 mm | 0 m/s | - | - |
| 1777544723 | 12.22° C | 37% | 1033.7 hPa | 0 mm | 0.45 m/s, 66° | - | - |
| 1777544410 | 12.78° C | 35% | 1033.7 hPa | 0 mm | 0.89 m/s, 292° | - | - |
| 1777544123 | 12.78° C | 34% | 1033.8 hPa | 0 mm | 0.45 m/s, 287° | - | - |
| 1777543810 | 12.22° C | 37% | 1033.9 hPa | 0 mm | 0.45 m/s, 267° | - | - |
| 1777543523 | 12.22° C | 33% | 1033.9 hPa | 0 mm | 0.45 m/s, 276° | - | - |
| 1777543210 | 12.22° C | 33% | 1034 hPa | 0 mm | 0.45 m/s, 294° | - | - |
* Rain latest hour (hover to see other rain measurements)
** Current wind speed in m/s (hover to see current wind gust speed)